GAOFEN 13-01

Last updated on Tue Nov 21 2023 00:02:40 GMT+0000 (Coordinated Universal Time)

1 46610U 20071A 23324.53042012 -.00000358 00000+0 00000+0 0 9993 2 46610 0.0807 72.0763 0012387 298.2240 357.7415 1.00270113 11499

Satellite not in orbit

GAOFEN 13-01